Zurück zum Katalog

OPS 5712

P/L 153

AktivMilitärLEO
NORAD 2874·PAYLOAD·🇺🇸 United States

Gestartet May 31, 1967 von Vandenberg Space Force Base

Loading…

Nächste Überflüge (nächste 24 Stunden)

TLE

AktuellSource: Space-Track

Epoche: Sep 14, 2026, 11:47 UTC

1 02874U 67053H   26257.49133256  .00000001  00000-0  38946-4 0  9992
2 02874  69.9724 283.8883 0004561  72.2819 287.8785 13.96839064 19267

Verfolge OPS 5712 in Echtzeit mit AllMySat

Download on the App Store